Location: Aragüita
(10.0436°N, 67.8028°W)
Time: 13:02:01
(UTC+00:00)

Cosmos 1862 Rocket - Pass Details

Date: 14 April 2024
Orbit: 600 x 630 km, 82.5° (Epoch: 27 May)

Event Time Altitude Azimuth Distance (km) Brightness Sun altitude
Rises 09:47:30 0° 183° (S) 2,910 6.9 -9.0°
Reaches altitude 10° 09:49:44 10° 182° (S) 2,001 6.0 -8.4°
Maximum altitude 09:54:11 86° 95° (E) 631 3.7 -7.3°
Drops below altitude 10° 09:58:36 10° 5° (N) 1,988 6.4 -6.3°
Sets 10:00:49 0° 5° (N) 2,889 7.2 -5.7°
